User: anonymous   Login
Location: Innerarity Island Observatory
(30.3139°N, 87.4867°W)
Time: 08:33:49
(UTC-05:00)
Language:

OPAL - Orbit

View from above orbital plane
View from above orbital plane
View from above satellite
View from above satellite

Ground track
Ground track

The orbit data is extracted from the following two-line orbital elements,

1 26063U 00004C   16177.77853088 -.00000006  00000-0  17895-4 0  9990
2 26063 100.1894 109.7751 0035863 232.8032 126.9873 14.36621649860201
Epoch (UTC): 25 June 2016 18:41:05
Eccentricity: 0.0035863
inclination: 100.1894°
perigee height: 744 km
apogee height: 795 km
right ascension of ascending node: 109.7751°
argument of perigee: 232.8032°
revolutions per day: 14.36621649
mean anomaly at epoch: 126.9873°
orbit number at epoch: 86020

The dashed part of the orbit path shows where the satellite is in the earth's shadow,  

DLR